DELTA 1 DEB, 13537

Orbit data source: Space-Track

DELTA 1 DEB, 13537 is space debris in SSO originally from a launch on Thu, 29 Jul 1976 UTC launched from the Air Force Western Test Range (AFWTR). Debris objects in space refer to the collection of defunct objects orbiting the Earth. Examples of debris include non-operational satellites, rocket bodies, and fragments generated from explosions, collisions, or faulty payload assembly.

Loading next visibility...
Identifier
13537, 1976-077EK
Orbit
SSO
Country
Flag of USUS
Related business
Manufacturer
Unknown
Mission
Spacecraft
Bus & Motor
Unknown
Mass
Unknown
Launch date (UTC)
1976-07-29 (50 years ago)
Launch vehicle
Unknown
Launch site
Air Force Western Test Range (AFWTR)
Object type
Payload
Rocket body
Debris
Shape & HBR
Unknown shape, 0.1 m
Radar Cross Section
Medium (>0.1 m² and <1 m²)

Expand to show TLE details & history
Last TLE update: 1 day ago

TLE from 1 day ago
0 DELTA 1 DEB
1 13537U 76077EK  26255.55421883 -.00000024  00000-0  18823-3 0  9994
2 13537 102.5629 241.9632 0075061 139.0209 345.9361 12.27250434143982
Epoch: 2026-09-12T13:18Z
TLE epoch observation values (Epoch: 2026-09-12T13:18:04.506Z)
Latitude
53.41776°
Longitude
-111.73226°
Altitude
1,511.818 km
Speed
7.14 km/s
True Right ascension
05h 17m 23s
True Declination
53° 16' 08"
Sunlit
Object was in daylight at epoch
Visualization orbit readout
Latitude
Unknown
Longitude
Unknown
Altitude
Unknown
Speed
Unknown
Apparent Right ascension
Unknown
Apparent Declination
Unknown
Sunlit
N/A
Visualization observer readout
Local Sidereal Time
07:44:01
Azimuth
Unknown
Elevation
Unknown
Doppler factor
Unknown
Orbital elements
Apogee altitude
1,618.318 km
Perigee altitude
1,499.167 km
Semi-major axis
7,936.88 km
Eccentricity
0.00751
Inclination
102.5629°
RAAN
241.9632°
Arg. of periapsis
139.0209°
True anomaly
345.72517°
Mean anomaly
345.9361°
Eccentric anomaly
345.83083°
Mean motion
3.06951 °/min
Orbital period
117.28 mins
BSTAR
0.00018823
Loading maneuver chart data...
Computing Atmospheric mass density...
Loading historical data...
Loading historical data...
Loading historical data...
Loading historical data...
Loading historical data...
Loading historical data...
Loading historical data...

Documentation

Showing up to 5 results
|